Location: Unspecified
(0.0000°N, 0.0000°E)
Time: 08:00:59
(UTC+00:00)

N. Korean satellite - Pass Details

Date: 24 September 2021
Orbit: 448 x 499 km, 97.3° (Epoch: 17 September)

Event Time Altitude Azimuth Distance (km) Brightness Sun altitude
Rises 04:11:01 0° 38° (NE) 2,547 10.7 -25.3°
Reaches altitude 10° 04:13:37 10° 59° (ENE) 1,678 10.0 -24.6°
Maximum altitude 04:16:03 17° 102° (ESE) 1,301 9.6 -24.0°
Drops below altitude 10° 04:18:29 10° 144° (SE) 1,694 9.8 -23.4°
Sets 04:21:07 0° 164° (SSE) 2,583 10.5 -22.7°
